Regional Weather Roundup
Issued by NWS Albany, NY

Current Version | Previous Version | Text Only | Print | Product List | Glossary On
Versions: 1 2 3 4 5 6 7 8 9 10 11 12 13 14 15 16 17 18 19 20 21 22 23 24 25 26 27 28 29 30 31 32 33 34 35 36 37 38 39 40 41 42 43 44 45 46 47 48 49 50
000
ASUS41 KALY 171910
RWRALY

NEW YORK STATE HOURLY WEATHER ROUNDUP
NATIONAL WEATHER SERVICE ALBANY NY
200 PM EST THU JAN 17 2019

NOTE: "FAIR" INDICATES FEW OR NO CLOUDS BELOW 12,000 FEET WITH NO
SIGNIFICANT WEATHER AND/OR NO OBSTRUCTIONS TO VISIBILITY.

NYZ032-033-038>043-046>054-057>066-NYZ062>081-082-084-172000-
EAST


CITY           SKY/WX    TMP DP  RH WIND       PRES   REMARKS
ALBANY         PTSUNNY   22  -4  32 NE6       30.35F WCI  14
GLENS FALLS    FAIR      18  -3  39 S5        30.35F WCI  11
POUGHKEEPSIE   FAIR      30   0  27 N3        30.34F
NEWBURGH       PTSUNNY   27   7  43 VRB5      30.32F WCI  21
MONTGOMERY     FAIR      28   5  37 N6        30.30F WCI  22
WHITE PLAINS   FAIR      29  -1  27 VRB6      30.31F WCI  23
ISLIP          CLOUDY    30   3  31 CALM      30.34F
NEW YORK CITY  PTSUNNY   31   5  33 E8        30.35F WCI  23
CENTRAL PARK   FAIR      31   8  38 MISG      30.36F
$$

NYZ005>009-017-018-044>046-055-056-172000-
CENTRAL


CITY           SKY/WX    TMP DP  RH WIND       PRES   REMARKS
FULTON         FAIR      18   2  49 VRB3      30.29F
SYRACUSE       PTSUNNY   18   4  54 E7        30.29F WCI   9
ROME           FAIR      18   4  54 VRB3      30.31F
ELMIRA         FAIR      26  10  50 E7        30.21F WCI  18
BINGHAMTON     FAIR      20   7  57 S7        30.18F WCI  11
MONTICELLO     FAIR      27   5  39 SE6       30.23  WCI  20
$$

NYZ026>034-041>043-087-172000-
NORTH


CITY           SKY/WX    TMP DP  RH WIND       PRES   REMARKS
WATERTOWN      FAIR      17   5  59 E3        30.31F
FORT DRUM      NOT AVBL
OGDENSBURG     FAIR      10  -8  44 VRB3      30.32F
MASSENA        FAIR      12  -7  42 CALM      30.38F
SARANAC LAKE   FAIR       9  -6  50 VRB5      30.18F WCI   1
PLATTSBURGH    PTSUNNY   12   5  73 NE5       30.37F WCI   4
$$

NYZ001>004-010>016-019>021-085-172000-
WEST


CITY           SKY/WX    TMP DP  RH WIND       PRES   REMARKS
NIAGARA FALLS  CLOUDY    22   9  57 E10       30.18F WCI  11
BUFFALO        CLOUDY    23  12  62 E9        30.17F WCI  13
DUNKIRK        FAIR      28  13  53 CALM      30.16F
JAMESTOWN      PTSUNNY   27  16  63 S6        30.09F WCI  20
WELLSVILLE     FAIR      26  10  50 SE8       30.10F WCI  18
ROCHESTER      CLOUDY    22  10  60 SE12      30.24F WCI  10
PENN YAN       FAIR      22   9  57 SE7       30.22F WCI  13
$$

             KEY
       WCI = WIND CHILL INDEX
       VSB = VISIBILITY
       HX  = HEAT INDEX
$$



USA.gov is the U.S. government's official web portal to all federal, state and local government web resources and services.